{"data":{"norad_id":54125,"epoch":"2026-09-20T01:01:54.107904Z","epoch_age_seconds":65329,"freshness":"FRESH","line1":"1 54125U 22138N   26263.04298736  .00000058  00000+0  11335-3 0  9999","line2":"2 54125  87.9102 286.0742 0001900  85.9528 274.1822 13.19726287189361","mean_motion":13.19726287,"eccentricity":0.00019,"inclination_deg":87.9102,"raan_deg":286.0742,"arg_perigee_deg":85.9528,"mean_anomaly_deg":274.1822,"bstar":0.00011335,"rev_number":18936,"period_min":109.11353469161,"perigee_km":1184.3284929368,"apogee_km":1187.2027759379,"semimajor_km":7563.9026344374,"source":"CELESTRAK","updated_at":"2026-09-20T09:00:44.717390Z"}}